Regional Weather Roundup
Issued by NWS

Home | Current Version | Previous Version | Text Only | Print | Product List | Glossary Off
Versions: 1 2 3 4 5 6 7 8 9 10 11 12 13 14 15 16 17 18 19 20 21 22 23 24 25 26 27 28 29 30 31 32 33 34 35 36 37 38 39 40 41 42 43 44 45 46 47 48 49 50

000
ASUS45 KPSR 012210
RWRAZ

ARIZONA REGIONAL HOURLY WEATHER ROUNDUP
NATIONAL WEATHER SERVICE PHOENIX AZ
300 PM MST FRI AUG 01 2014

NOTE: FAIR INDICATES FEW OR NO CLOUDS BELOW 12,000 FEET WITH NO
SIGNIFICANT WEATHER AND/OR OBSTRUCTIONS TO VISIBILITY.

AZZ001>003-036-012300-
NORTHWEST ARIZONA

CITY           SKY/WX    TMP DP  RH WIND       PRES   REMARKS
BULLHEAD CITY  SUNNY    108  55  18 S12G21    29.81F HX 106
KINGMAN        SUNNY     96  50  20 S18G24    30.04F
$$

AZZ004>008-015-016-018-012300-
NORTH CENTRAL ARIZONA

CITY           SKY/WX    TMP DP  RH WIND       PRES   REMARKS
GRAND CANYON   CLOUDY    78  49  35 N6        30.27F
WILLIAMS       MOSUNNY   77  50  38 W7        30.34F
PRESCOTT       MOSUNNY   88  48  25 CALM      30.15F
FLAGSTAFF      TSTM      59  55  87 SW3       30.33F
PAYSON         PTSUNNY   82  52  34 VRB3      30.16F
PAGE           PTSUNNY   94  45  18 VRB3      30.05F
$$

AZZ009>014-017-012300-
NORTHEAST ARIZONA

CITY           SKY/WX    TMP DP  RH WIND       PRES   REMARKS
WINSLOW        CLOUDY    91  46  21 W8        30.11F
SAINT JOHNS    PTSUNNY   87  47  24 E8        30.16F
WINDOW ROCK    PTSUNNY   81  50  33 NE8       30.26F
SHOW LOW       PTSUNNY   81  41  24 NE6       30.24F
$$

AZZ023-012300-
GREATER PHOENIX AREA

CITY           SKY/WX    TMP DP  RH WIND       PRES   REMARKS
PHOENIX        PTSUNNY   95  60  31 VRB3      29.87F
BUCKEYE          N/A     91  64  40 S3        29.89F
GLENDALE       PTSUNNY   95  61  31 SE7       29.89F
LUKE AFB       NOT AVBL
DEER VALLEY    MOSUNNY   96  57  27 VRB7      29.88F
SCOTTSDALE     MOSUNNY   97  61  30 VRB7      29.90F
MESA-GATEWAY   MOSUNNY   95  63  34 VRB6      29.92F
CHANDLER       PTSUNNY   93  66  40 SW12      29.90F
$$

AZZ027-028-012300-
SOUTHWEST MARICOPA COUNTY AND PINAL COUNTY

CITY           SKY/WX    TMP DP  RH WIND       PRES   REMARKS
CASA GRANDE    PTSUNNY   90  63  40 S5        29.93F
GILA BEND      MOCLDY    95  59  30 NE8       29.89F
$$

AZZ503-504-507>509-012300-
SOUTHEAST ARIZONA

CITY           SKY/WX    TMP DP  RH WIND       PRES   REMARKS
TUCSON         CLOUDY    89  60  37 CALM      30.00F
DAVIS-MONTHAN  CLOUDY    88  62  40 W6        29.98F
RYAN FIELD       N/A     91  54  27 NW6       29.98F
NOGALES        PTSUNNY   89  58  34 SW8       30.08F
SIERRA VISTA   MOSUNNY   82  57  42 VRB3      30.15F
DOUGLAS        PTSUNNY   79  64  60 S8        30.12F
SAFFORD        MOSUNNY   93  53  25 SW3       29.98F
$$

AZZ020-021-025-026-031-012300-
SOUTHWEST ARIZONA

CITY           SKY/WX    TMP DP  RH WIND       PRES   REMARKS
YUMA           PTSUNNY  107  57  19 SW9       29.78F HX 107
$$

CAZ031-033-041-043-047-048-061-012300-
SOUTHERN CALIFORNIA

CITY           SKY/WX    TMP DP  RH WIND       PRES   REMARKS
DOWNTOWN L.A.  SUNNY     82  64  54 NW5       29.87F
L.A. AIRPORT   MOSUNNY   74  63  68 W14G21    29.89F
SAN DIEGO      MOSUNNY   77  63  61 W9        29.92S
BURBANK        SUNNY     89  62  40 SE10G17   29.87F
ONTARIO        MOSUNNY   98  61  29 W14       29.87F
RIVERSIDE      SUNNY     98  61  29 W13G20    29.86F
PALM SPRINGS   PTSUNNY  101  64  29 SE8       29.84F HX 104
EL CENTRO NAS  MOSUNNY  108  58  19 E7        29.76F HX 108
IMPERIAL       MOSUNNY  108  58  19 S9G22     29.76F HX 108
BLYTHE           N/A    N/A N/A N/A MISG      29.79F
NEEDLES        SUNNY    108  52  15 S5        29.81F HX 105
$$

NVZ020-UTZ003-012300-
SOUTHERN NEVADA-UTAH

CITY           SKY/WX    TMP DP  RH WIND       PRES   REMARKS
LAS VEGAS      MOSUNNY  106  50  15 E8        29.85F HX 103
SALT LAKE CITY MOSUNNY   90  47  22 NW9       30.10F
$$

NMZ009-TXZ055-012300-
NEW MEXICO-WEST TEXAS

CITY           SKY/WX    TMP DP  RH WIND       PRES   REMARKS
ALBUQUERQUE    MOSUNNY   79  56  45 E14G23    30.21F
EL PASO        LGT RAIN  70  65  84 SE7       30.14S
$$


........................KEY........................
SKY/WX - SKY CONDITION/WEATHER
TMP    - TEMPERATURE IN FAHRENHEIT
DP     - DEW POINT IN FAHRENHEIT
RH     - RELATIVE HUMIDITY IN PERCENT
WIND   - DIRECTION AND SPEED IN MILES PER HOUR (MPH)
VRB    - VARIABLE WIND DIRECTION
PRES   - MEAN SEA LEVEL PRESSURE IN INCHES OF MERCURY
         F - FALLING PRESSURE   R - RISING PRESSURE
         S - STEADY PRESSURE
VSB    - VISIBILITY IN MILES
HX     - HEAT INDEX IN FAHRENHEIT
WCI    - WIND CHILL INDEX IN FAHRENHEIT
TC     - TEMPERATURE IN CELSIUS WHICH IS ALSO KNOWN AS
         TEMPERATURE IN CENTIGRADE
AFB    - AIR FORCE BASE
         LUKE AFB IS LUKE AIR FORCE BASE
         DAVIS-MONTHAN IS DAVIS-MONTHAN AIR FORCE BASE
NAS    - NAVAL AIR STATION
         EL CENTRO NAS IS EL CENTRO NAVAL AIR STATION
N/A    - NOT AVAILABLE


USA.gov is the U.S. government's official web portal to all federal, state and local government web resources and services.